Time,TemperatureF,DewpointF,PressureIn,WindDirection,WindDirectionDegrees,WindSpeedMPH,WindSpeedGustMPH,Humidity,HourlyPrecipIn,Conditions,Clouds,dailyrainin,SoftwareType,DateUTC
2013-01-19 00:04:00,32.0,12.0,30.43,North,0,0.0,-999.0,43,-99.99,,,-99.99,,2013-01-19 05:04:00,
2013-01-19 00:12:00,32.0,14.0,30.42,North,0,0.0,-999.0,46,-99.99,,,-99.99,,2013-01-19 05:12:00,
2013-01-19 00:23:00,32.0,14.0,30.42,North,0,0.0,-999.0,46,-99.99,,,-99.99,,2013-01-19 05:23:00,
2013-01-19 00:33:00,32.0,14.0,30.41,North,0,0.0,-999.0,46,-99.99,,,-99.99,,2013-01-19 05:33:00,
2013-01-19 00:43:00,32.0,14.0,30.41,North,0,0.0,-999.0,46,-99.99,,,-99.99,,2013-01-19 05:43:00,
2013-01-19 00:52:00,32.0,16.0,30.40,North,0,0.0,-999.0,50,-99.99,,,-99.99,,2013-01-19 05:52:00,
2013-01-19 01:03:00,32.0,16.0,30.40,North,0,0.0,-999.0,50,-99.99,,,-99.99,,2013-01-19 06:03:00,
2013-01-19 01:12:00,32.0,18.0,30.39,North,0,0.0,-999.0,54,-99.99,,,-99.99,,2013-01-19 06:12:00,
2013-01-19 01:23:00,32.0,18.0,30.39,North,0,0.0,-999.0,54,-99.99,,,-99.99,,2013-01-19 06:23:00,
2013-01-19 01:33:00,30.0,16.0,30.39,North,0,0.0,-999.0,54,-99.99,,,-99.99,,2013-01-19 06:33:00,
2013-01-19 01:43:00,30.0,16.0,30.39,North,0,0.0,-999.0,54,-99.99,,,-99.99,,2013-01-19 06:43:00,
2013-01-19 01:52:00,30.0,18.0,30.39,North,0,0.0,-999.0,59,-99.99,,,-99.99,,2013-01-19 06:52:00,
2013-01-19 02:02:00,30.0,18.0,30.39,North,0,0.0,-999.0,59,-99.99,,,-99.99,,2013-01-19 07:02:00,
2013-01-19 02:12:00,30.0,18.0,30.39,North,0,0.0,-999.0,59,-99.99,,,-99.99,,2013-01-19 07:12:00,
2013-01-19 02:23:00,30.0,18.0,30.39,North,0,0.0,-999.0,59,-99.99,,,-99.99,,2013-01-19 07:23:00,
2013-01-19 02:33:00,32.0,19.0,30.39,North,0,0.0,-999.0,59,-99.99,,,-99.99,,2013-01-19 07:33:00,
2013-01-19 02:43:00,32.0,19.0,30.39,North,0,0.0,-999.0,59,-99.99,,,-99.99,,2013-01-19 07:43:00,
2013-01-19 02:52:00,34.0,19.0,30.38,North,0,0.0,-999.0,55,-99.99,,,-99.99,,2013-01-19 07:52:00,
2013-01-19 03:02:00,34.0,19.0,30.38,North,0,0.0,-999.0,55,-99.99,,,-99.99,,2013-01-19 08:02:00,
2013-01-19 03:12:00,34.0,19.0,30.38,North,0,0.0,-999.0,55,-99.99,,,-99.99,,2013-01-19 08:12:00,
2013-01-19 03:23:00,34.0,19.0,30.38,North,0,0.0,-999.0,55,-99.99,,,-99.99,,2013-01-19 08:23:00,
2013-01-19 03:32:00,34.0,21.0,30.38,North,-99,6.0,-999.0,59,-99.99,,,-99.99,,2013-01-19 08:32:00,
2013-01-19 03:43:00,34.0,21.0,30.38,North,-99,6.0,-999.0,59,-99.99,,,-99.99,,2013-01-19 08:43:00,
2013-01-19 03:52:00,34.0,21.0,30.37,NE,50,8.0,-999.0,59,-99.99,,,-99.99,,2013-01-19 08:52:00,
2013-01-19 04:02:00,34.0,21.0,30.37,NE,50,8.0,-999.0,59,-99.99,,,-99.99,,2013-01-19 09:02:00,
2013-01-19 04:12:00,34.0,21.0,30.37,North,-99,7.0,-999.0,59,-99.99,,,-99.99,,2013-01-19 09:12:00,
2013-01-19 04:23:00,34.0,21.0,30.37,North,-99,7.0,-999.0,59,-99.99,,,-99.99,,2013-01-19 09:23:00,
2013-01-19 04:33:00,34.0,21.0,30.36,North,-99,5.0,-999.0,59,-99.99,,,-99.99,,2013-01-19 09:33:00,
2013-01-19 04:43:00,34.0,21.0,30.36,North,-99,5.0,-999.0,59,-99.99,,,-99.99,,2013-01-19 09:43:00,
2013-01-19 04:52:00,34.0,21.0,30.35,NE,50,8.0,-999.0,59,-99.99,,,-99.99,,2013-01-19 09:52:00,
2013-01-19 05:02:00,34.0,21.0,30.35,NE,50,8.0,-999.0,59,-99.99,,,-99.99,,2013-01-19 10:02:00,
2013-01-19 05:12:00,34.0,21.0,30.35,NE,50,8.0,-999.0,59,-99.99,,,-99.99,,2013-01-19 10:12:00,
2013-01-19 05:23:00,34.0,21.0,30.35,NE,50,8.0,-999.0,59,-99.99,,,-99.99,,2013-01-19 10:23:00,
2013-01-19 05:32:00,34.0,21.0,30.35,North,-99,7.0,-999.0,59,-99.99,,,-99.99,,2013-01-19 10:32:00,
2013-01-19 05:43:00,34.0,21.0,30.35,North,-99,7.0,-999.0,59,-99.99,,,-99.99,,2013-01-19 10:43:00,
2013-01-19 05:53:00,34.0,21.0,30.34,NE,50,8.0,-999.0,59,-99.99,,,-99.99,,2013-01-19 10:53:00,
2013-01-19 06:03:00,34.0,21.0,30.34,NE,50,8.0,-999.0,59,-99.99,,,-99.99,,2013-01-19 11:03:00,
2013-01-19 06:12:00,34.0,21.0,30.34,North,-99,5.0,-999.0,59,-99.99,,,-99.99,,2013-01-19 11:12:00,
2013-01-19 06:35:00,36.0,21.0,30.34,North,-99,6.0,-999.0,55,-99.99,,,-99.99,,2013-01-19 11:35:00,
2013-01-19 07:48:00,36.0,21.0,30.33,North,-99,5.0,-999.0,55,-99.99,,,-99.99,,2013-01-19 12:48:00,
2013-01-19 08:03:00,36.0,21.0,30.33,NE,50,8.0,-999.0,55,-99.99,,,-99.99,,2013-01-19 13:03:00,
2013-01-19 08:13:00,36.0,21.0,30.33,North,-99,7.0,-999.0,55,-99.99,,,-99.99,,2013-01-19 13:13:00,
2013-01-19 08:23:00,36.0,21.0,30.33,North,-99,7.0,-999.0,55,-99.99,,,-99.99,,2013-01-19 13:23:00,
2013-01-19 08:33:00,36.0,21.0,30.33,ENE,60,9.0,-999.0,55,-99.99,,,-99.99,,2013-01-19 13:33:00,
2013-01-19 08:43:00,36.0,21.0,30.33,ENE,60,9.0,-999.0,55,-99.99,,,-99.99,,2013-01-19 13:43:00,
2013-01-19 08:53:00,36.0,21.0,30.34,North,-99,6.0,-999.0,55,-99.99,,,-99.99,,2013-01-19 13:53:00,
2013-01-19 09:03:00,36.0,21.0,30.34,North,-99,6.0,-999.0,55,-99.99,,,-99.99,,2013-01-19 14:03:00,
2013-01-19 09:12:00,37.0,21.0,30.33,NE,50,9.0,-999.0,51,-99.99,,,-99.99,,2013-01-19 14:12:00,
2013-01-19 09:23:00,37.0,21.0,30.33,NE,50,9.0,-999.0,51,-99.99,,,-99.99,,2013-01-19 14:23:00,
2013-01-19 09:34:00,37.0,21.0,30.33,East,80,10.0,17.0,51,-99.99,,,-99.99,,2013-01-19 14:34:00,
2013-01-19 09:43:00,37.0,21.0,30.33,East,80,10.0,17.0,51,-99.99,,,-99.99,,2013-01-19 14:43:00,
2013-01-19 09:53:00,39.0,21.0,30.33,East,80,10.0,20.0,48,-99.99,,,-99.99,,2013-01-19 14:53:00,
2013-01-19 10:03:00,39.0,21.0,30.33,East,80,10.0,20.0,48,-99.99,,,-99.99,,2013-01-19 15:03:00,
2013-01-19 10:13:00,39.0,23.0,30.33,ENE,70,13.0,-999.0,51,-99.99,,,-99.99,,2013-01-19 15:13:00,
2013-01-19 10:23:00,39.0,23.0,30.33,ENE,70,13.0,-999.0,51,-99.99,,,-99.99,,2013-01-19 15:23:00,
2013-01-19 10:33:00,41.0,21.0,30.32,NE,50,10.0,23.0,44,-99.99,,,-99.99,,2013-01-19 15:33:00,
2013-01-19 10:43:00,41.0,21.0,30.32,NE,50,10.0,23.0,44,-99.99,,,-99.99,,2013-01-19 15:43:00,
2013-01-19 10:53:00,43.0,21.0,30.31,NE,50,16.0,24.0,41,-99.99,,,-99.99,,2013-01-19 15:53:00,
2013-01-19 11:03:00,43.0,21.0,30.31,NE,50,16.0,24.0,41,-99.99,,,-99.99,,2013-01-19 16:03:00,
2013-01-19 11:13:00,45.0,25.0,30.30,East,80,8.0,-999.0,45,-99.99,,,-99.99,,2013-01-19 16:13:00,
2013-01-19 11:23:00,45.0,25.0,30.30,East,80,8.0,-999.0,45,-99.99,,,-99.99,,2013-01-19 16:23:00,
2013-01-19 11:33:00,45.0,25.0,30.28,North,-99,7.0,-999.0,45,-99.99,,,-99.99,,2013-01-19 16:33:00,
2013-01-19 11:43:00,45.0,25.0,30.28,North,-99,7.0,-999.0,45,-99.99,,,-99.99,,2013-01-19 16:43:00,
2013-01-19 11:53:00,46.0,23.0,30.26,ENE,70,12.0,21.0,39,-99.99,,,-99.99,,2013-01-19 16:53:00,
2013-01-19 12:03:00,46.0,23.0,30.26,ENE,70,12.0,21.0,39,-99.99,,,-99.99,,2013-01-19 17:03:00,
2013-01-19 12:20:00,46.0,23.0,30.26,ENE,70,12.0,21.0,39,-99.99,,,-99.99,,2013-01-19 17:20:00,
2013-01-19 12:29:00,46.0,23.0,30.24,NE,50,12.0,20.0,39,-99.99,,,-99.99,,2013-01-19 17:29:00,
2013-01-19 12:36:00,48.0,25.0,30.22,North,-99,7.0,-999.0,39,-99.99,,,-99.99,,2013-01-19 17:36:00,
2013-01-19 12:49:00,48.0,25.0,30.22,North,-99,7.0,-999.0,39,-99.99,,,-99.99,,2013-01-19 17:49:00,
2013-01-19 13:12:00,50.0,23.0,30.21,North,-99,7.0,-999.0,34,-99.99,,,-99.99,,2013-01-19 18:12:00,
2013-01-19 13:46:00,52.0,23.0,30.18,North,-99,7.0,-999.0,32,-99.99,,,-99.99,,2013-01-19 18:46:00,
2013-01-19 13:55:00,54.0,25.0,30.18,North,-99,6.0,-999.0,32,-99.99,,,-99.99,,2013-01-19 18:55:00,
2013-01-19 14:31:00,54.0,25.0,30.17,NE,50,9.0,-999.0,32,-99.99,,,-99.99,,2013-01-19 19:31:00,
2013-01-19 14:40:00,54.0,25.0,30.15,NE,50,10.0,-999.0,32,-99.99,,,-99.99,,2013-01-19 19:40:00,
2013-01-19 14:48:00,54.0,25.0,30.15,NE,50,10.0,-999.0,32,-99.99,,,-99.99,,2013-01-19 19:48:00,
2013-01-19 14:54:00,54.0,25.0,30.14,NNE,30,12.0,17.0,32,-99.99,,,-99.99,,2013-01-19 19:54:00,
2013-01-19 15:11:00,54.0,25.0,30.14,NNE,30,12.0,17.0,32,-99.99,,,-99.99,,2013-01-19 20:11:00,
2013-01-19 15:20:00,54.0,25.0,30.13,NE,40,8.0,-999.0,32,-99.99,,,-99.99,,2013-01-19 20:20:00,
2013-01-19 15:39:00,54.0,25.0,30.13,NE,50,8.0,-999.0,32,-99.99,,,-99.99,,2013-01-19 20:39:00,
2013-01-19 15:49:00,54.0,25.0,30.13,NE,50,8.0,-999.0,32,-99.99,,,-99.99,,2013-01-19 20:49:00,
2013-01-19 15:54:00,55.0,25.0,30.12,NNE,30,8.0,-999.0,30,-99.99,,,-99.99,,2013-01-19 20:54:00,
2013-01-19 16:08:00,55.0,25.0,30.12,NNE,30,8.0,-999.0,30,-99.99,,,-99.99,,2013-01-19 21:08:00,
2013-01-19 16:15:00,54.0,25.0,30.11,NNE,30,8.0,-999.0,32,-99.99,,,-99.99,,2013-01-19 21:15:00,
2013-01-19 16:29:00,54.0,25.0,30.11,NNE,30,8.0,-999.0,32,-99.99,,,-99.99,,2013-01-19 21:29:00,
2013-01-19 16:45:00,54.0,25.0,30.10,ENE,60,13.0,20.0,32,-99.99,,,-99.99,,2013-01-19 21:45:00,
2013-01-19 16:52:00,54.0,25.0,30.10,ENE,60,13.0,20.0,32,-99.99,,,-99.99,,2013-01-19 21:52:00,
2013-01-19 17:15:00,54.0,23.0,30.10,North,-99,6.0,-999.0,30,-99.99,,,-99.99,,2013-01-19 22:15:00,
2013-01-19 17:28:00,54.0,25.0,30.09,NNE,30,8.0,-999.0,32,-99.99,,,-99.99,,2013-01-19 22:28:00,
2013-01-19 17:35:00,52.0,23.0,30.09,North,-99,7.0,-999.0,32,-99.99,,,-99.99,,2013-01-19 22:35:00,
2013-01-19 17:48:00,52.0,23.0,30.09,North,-99,7.0,-999.0,32,-99.99,,,-99.99,,2013-01-19 22:48:00,
2013-01-19 17:55:00,52.0,23.0,30.09,North,-99,7.0,-999.0,32,-99.99,,,-99.99,,2013-01-19 22:55:00,
2013-01-19 18:14:00,52.0,23.0,30.09,North,-99,7.0,-999.0,32,-99.99,,,-99.99,,2013-01-19 23:14:00,
2013-01-19 18:35:00,50.0,25.0,30.08,North,0,0.0,-999.0,37,-99.99,,,-99.99,,2013-01-19 23:35:00,
2013-01-19 18:47:00,50.0,25.0,30.08,North,0,0.0,-999.0,37,-99.99,,,-99.99,,2013-01-19 23:47:00,
2013-01-19 19:09:00,48.0,25.0,30.08,North,-99,7.0,-999.0,39,-99.99,,,-99.99,,2013-01-20 00:09:00,
2013-01-19 19:16:00,48.0,25.0,30.08,NE,50,9.0,-999.0,39,-99.99,,,-99.99,,2013-01-20 00:16:00,
2013-01-19 19:26:00,48.0,25.0,30.08,NE,50,9.0,-999.0,39,-99.99,,,-99.99,,2013-01-20 00:26:00,
2013-01-19 19:36:00,48.0,25.0,30.08,North,-99,5.0,-999.0,39,-99.99,,,-99.99,,2013-01-20 00:36:00,
2013-01-19 19:47:00,48.0,25.0,30.08,North,-99,5.0,-999.0,39,-99.99,,,-99.99,,2013-01-20 00:47:00,
2013-01-19 20:04:00,48.0,25.0,30.07,ENE,60,10.0,18.0,39,-99.99,,,-99.99,,2013-01-20 01:04:00,
2013-01-19 20:20:00,48.0,25.0,30.07,NE,40,13.0,18.0,39,-99.99,,,-99.99,,2013-01-20 01:20:00,
2013-01-19 20:28:00,48.0,25.0,30.07,NE,40,13.0,18.0,39,-99.99,,,-99.99,,2013-01-20 01:28:00,
2013-01-19 20:38:00,48.0,25.0,30.06,NE,50,9.0,-999.0,39,-99.99,,,-99.99,,2013-01-20 01:38:00,
2013-01-19 20:49:00,48.0,25.0,30.06,NE,50,9.0,-999.0,39,-99.99,,,-99.99,,2013-01-20 01:49:00,
2013-01-19 20:58:00,46.0,25.0,30.06,NE,50,10.0,16.0,42,-99.99,,,-99.99,,2013-01-20 01:58:00,
2013-01-19 21:09:00,46.0,25.0,30.06,NE,50,10.0,16.0,42,-99.99,,,-99.99,,2013-01-20 02:09:00,
2013-01-19 21:15:00,46.0,25.0,30.05,NE,50,8.0,-999.0,42,-99.99,,,-99.99,,2013-01-20 02:15:00,
2013-01-19 21:27:00,46.0,25.0,30.05,NE,50,8.0,-999.0,42,-99.99,,,-99.99,,2013-01-20 02:27:00,
2013-01-19 21:36:00,46.0,25.0,30.04,ENE,60,8.0,-999.0,42,-99.99,,,-99.99,,2013-01-20 02:36:00,
2013-01-19 21:45:00,46.0,25.0,30.04,ENE,60,8.0,-999.0,42,-99.99,,,-99.99,,2013-01-20 02:45:00,
2013-01-19 21:55:00,46.0,27.0,30.03,NE,50,8.0,-999.0,45,-99.99,,,-99.99,,2013-01-20 02:55:00,
2013-01-19 22:15:00,46.0,25.0,30.03,ENE,60,10.0,17.0,42,-99.99,,,-99.99,,2013-01-20 03:15:00,
2013-01-19 22:26:00,46.0,25.0,30.03,ENE,60,10.0,17.0,42,-99.99,,,-99.99,,2013-01-20 03:26:00,
2013-01-19 22:39:00,46.0,25.0,30.02,ENE,60,13.0,20.0,42,-99.99,,,-99.99,,2013-01-20 03:39:00,
2013-01-19 22:45:00,46.0,25.0,30.02,ENE,60,13.0,20.0,42,-99.99,,,-99.99,,2013-01-20 03:45:00,
2013-01-19 22:54:00,46.0,25.0,30.02,North,-99,7.0,-999.0,42,-99.99,,,-99.99,,2013-01-20 03:54:00,
2013-01-19 23:05:00,46.0,25.0,30.02,North,-99,7.0,-999.0,42,-99.99,,,-99.99,,2013-01-20 04:05:00,
2013-01-19 23:15:00,46.0,25.0,30.02,North,-99,7.0,-999.0,42,-99.99,,,-99.99,,2013-01-20 04:15:00,
2013-01-19 23:27:00,46.0,25.0,30.02,North,-99,7.0,-999.0,42,-99.99,,,-99.99,,2013-01-20 04:27:00,
2013-01-19 23:45:00,45.0,25.0,29.99,North,-99,7.0,-999.0,45,-99.99,,,-99.99,,2013-01-20 04:45:00,
2013-01-19 23:59:00,45.0,25.0,29.97,ENE,60,12.0,18.0,45,-99.99,,,-99.99,,2013-01-20 04:59:00,